Theta_e
283 284 285 286 286 285 287 285 288 292 291 292 292 292 293 293 293 293 293 293 293 295 295 296 297 297 297
283 283 285 284 284 284 286 287 285 290 290 291 290 291 291 291 291 291 291 291 292 293 294 294 295 295 296
281 283 283 285 284 285 284 283 286 290 290 289 289 290 290 290 290 290 290 290 291 292 292 292 293 294 295
283 283 283 284 284 282 282 281 282 285 286 287 287 288 289 289 288 288 289 290 291 291 291 291 291 292 293
283 283 282 282 282 282 279 279 279 279 279 279 279 279 281 283 285 288 289 289 290 290 290 291 291 291 292
283 282 281 282 282 280 279 278 277 280 277 277 278 277 278 279 286 287 288 288 289 289 289 290 290 290 290
283 283 282 282 282 280 279 278 278 279 277 275 277 276 278 280 285 287 287 287 288 288 288 289 289 289 289
285 283 283 283 283 282 280 279 278 278 277 273 275 275 276 277 284 286 286 286 287 287 287 288 288 288 288
288 289 288 287 285 281 277 276 275 276 277 275 275 275 276 276 278 284 284 285 285 286 286 286 286 286 283
285 285 284 285 286 280 278 274 275 273 276 274 275 275 271 276 277 277 278 282 283 283 284 285 285 281 280
279 278 278 278 278 279 279 276 272 274 278 275 271 273 271 270 273 275 276 277 277 278 281 282 284 283 279
277 277 277 277 277 277 278 277 277 276 277 277 265 269 262 261 267 272 275 276 276 276 277 280 282 282 283
277 276 277 277 278 277 278 278 276 277 279 277 273 273 265 262 265 269 273 272 275 276 276 277 276 277 275
276 276 276 275 273 275 270 272 269 269 274 277 277 274 264 269 268 271 271 266 272 275 276 276 277 277 277
275 274 275 274 272 273 270 268 264 265 266 270 272 273 273 271 263 266 267 267 273 274 274 274 276 278 278
274 274 272 271 270 269 269 264 262 263 262 264 266 266 266 267 274 267 264 262 273 274 275 274 274 277 278
274 272 270 270 269 268 265 264 262 260 260 262 260 260 259 260 268 277 268 272 273 274 275 274 274 275 278
Wind_Speed
3 4 4 7 5 4 4 4 3 6 4 4 4 5 5 6 8 9 10 11 12 15 16 17 17 19 21
6 3 5 5 5 5 3 3 3 4 3 4 5 6 6 7 8 9 9 11 14 15 16 16 18 21 22
7 3 3 3 4 4 3 2 1 3 6 6 5 6 8 8 9 9 10 13 15 16 15 17 20 22 23
9 7 4 3 3 3 3 2 2 3 6 6 7 8 9 9 10 10 12 14 15 15 17 20 21 22 24
8 5 4 5 5 3 3 2 3 2 2 3 3 3 4 7 7 11 12 13 15 18 20 21 22 23 25
5 9 6 4 3 4 4 3 2 1 2 2 2 3 3 3 12 11 10 14 18 19 20 22 23 25 26
13 10 9 5 6 4 3 3 3 1 2 2 2 3 2 4 9 9 11 16 18 20 21 23 26 26 27
9 7 8 7 6 4 4 4 4 4 2 1 3 3 3 4 7 9 14 18 21 22 24 24 26 27 28
19 20 18 17 12 7 3 5 2 2 3 1 3 4 2 3 3 12 17 19 20 22 20 23 26 28 17
12 13 11 10 11 5 3 4 3 2 2 2 3 3 5 2 3 4 6 14 20 18 20 25 27 13 12
9 7 7 7 5 5 5 4 3 3 2 3 2 2 1 5 4 2 4 9 8 9 18 23 26 22 14
8 6 6 6 5 4 5 5 4 4 3 4 2 3 2 3 4 4 9 9 4 6 11 19 23 24 26
7 5 4 5 5 4 4 5 4 4 3 2 3 2 4 4 4 5 9 5 6 9 10 12 13 12 13
6 6 5 3 3 2 2 1 4 4 4 3 3 2 3 4 3 7 5 4 5 10 10 14 11 11 11
6 5 5 5 2 1 2 4 4 1 4 3 4 5 6 6 2 4 4 4 8 11 11 13 15 11 11
5 6 5 4 3 2 4 3 2 1 2 3 4 5 5 5 11 4 4 3 10 11 11 11 13 15 13
6 6 5 3 5 3 3 3 2 1 2 1 3 3 4 4 5 3 2 8 7 11 11 11 13 16 12
Wind_Direction
118 131 107 126 109 119 116 122 136 129 95 36 23 25 27 21 360 2 0 358 350 344 339 335 334 332 325
123 120 128 139 140 133 142 123 148 148 94 55 48 25 8 0 2 6 4 354 343 338 334 331 329 326 322
131 115 112 139 120 114 118 95 180 148 82 61 27 3 1 1 9 3 352 338 337 338 336 331 328 324 321
129 133 126 123 104 118 103 55 59 38 43 36 13 6 0 9 3 354 342 339 341 336 333 328 323 318 315
132 141 136 140 148 145 119 110 42 56 16 4 3 1 11 355 338 344 341 346 343 333 329 324 321 318 316
151 153 135 126 123 136 134 124 139 360 65 321 25 335 314 331 342 341 346 348 337 328 326 323 319 319 317
145 149 145 147 135 123 127 128 126 18 80 309 345 308 302 326 337 347 349 334 328 333 330 327 325 322 319
120 118 118 126 122 133 138 109 85 60 41 40 330 285 332 333 329 329 336 334 339 337 333 329 323 321 319
118 118 120 122 125 120 104 118 102 98 21 53 341 307 334 291 297 329 334 334 333 333 327 323 324 324 318
110 101 93 111 119 91 123 121 129 72 10 69 18 358 327 267 301 317 321 319 332 328 328 327 328 321 313
110 102 95 89 84 80 79 113 108 86 48 100 80 356 270 306 308 281 296 319 318 315 318 322 323 323 313
117 115 116 110 96 93 92 82 75 122 91 88 157 160 152 295 273 320 321 310 299 312 318 316 316 320 315
127 116 111 117 112 86 75 90 85 58 74 130 180 217 167 215 266 293 318 293 304 322 319 315 318 315 312
120 109 110 96 98 109 101 76 69 6 348 340 300 255 277 228 210 277 277 300 303 315 316 307 310 307 299
123 117 120 118 103 114 97 63 80 13 318 312 303 276 256 247 296 252 265 281 306 313 319 314 311 314 303
126 133 129 130 133 86 74 83 114 314 284 284 326 341 342 309 204 253 296 256 310 312 311 319 310 312 309
139 134 133 155 117 93 83 85 27 268 267 301 28 57 11 323 283 262 280 312 309 316 319 311 301 298 305